When you browse on this site, cookies collect data to enhance your experience and personalize the content and advertising you see.
Visit our Privacy Policy to learn more. By continuing to use the site, you agree to this use of cookies and data.
  • In Austria
  • List of Countries
  • For 7 days
  • Water Temperature
  • Satellite Maps
  • Weather Map
  • News
  • Weather Widgets
  • user-avatar
    Login

    Hourly Weather Rigny-Ussé

    Today, 17 February, Sunday

    Time Temperature Precipitation Wind Pressure Humidity
    00:00 +7°C° 0 mm 3 mps 761 mmHg 80%
    01:00 +5°C° 0 mm 3 mps 761 mmHg 79%
    02:00 +5°C° 0 mm 3 mps 760 mmHg 77%
    03:00 +5°C° 0 mm 4 mps 760 mmHg 76%
    04:00 +5°C° 0 mm 4 mps 760 mmHg 73%
    05:00 +4°C° 0 mm 4 mps 760 mmHg 69%
    06:00 +4°C° 0 mm 4 mps 760 mmHg 66%
    07:00 +5°C° 0 mm 5 mps 760 mmHg 64%
    08:00 +6°C° 0 mm 5 mps 760 mmHg 61%
    09:00 +7°C° 0 mm 6 mps 760 mmHg 59%
    10:00 +9°C° 0 mm 6 mps 760 mmHg 56%
    11:00 +11°C° 0 mm 6 mps 760 mmHg 53%
    12:00 +13°C° 0 mm 6 mps 760 mmHg 50%
    13:00 +14°C° 0 mm 5 mps 759 mmHg 51%
    14:00 +14°C° 0 mm 5 mps 759 mmHg 51%
    15:00 +15°C° 0 mm 5 mps 759 mmHg 52%
    16:00 +13°C° 0 mm 4 mps 759 mmHg 59%
    17:00 +11°C° 0 mm 3 mps 759 mmHg 67%
    18:00 +10°C° 0 mm 3 mps 759 mmHg 75%
    19:00 +9°C° 0 mm 2 mps 759 mmHg 77%
    20:00 +8°C° 0 mm 2 mps 759 mmHg 80%
    21:00 +8°C° 0 mm 2 mps 759 mmHg 83%
    22:00 +7°C° 0 mm 3 mps 759 mmHg 85%
    23:00 +7°C° 0 mm 3 mps 759 mmHg 86%

    Tomorrow, 18 February, Monday

    Time Temperature Precipitation Wind Pressure Humidity
    00:00 +7°C° 0 mm 3 mps 759 mmHg 88%
    01:00 +5°C° 0 mm 3 mps 758 mmHg 88%
    02:00 +5°C° 0 mm 3 mps 758 mmHg 88%
    03:00 +5°C° 0 mm 3 mps 758 mmHg 88%
    04:00 +4°C° 0 mm 3 mps 758 mmHg 89%
    05:00 +4°C° 0 mm 3 mps 758 mmHg 90%
    06:00 +5°C° 0 mm 2 mps 758 mmHg 91%
    07:00 +5°C° 0 mm 3 mps 758 mmHg 87%
    08:00 +6°C° 0 mm 4 mps 758 mmHg 83%
    09:00 +7°C° 0 mm 4 mps 758 mmHg 80%
    10:00 +9°C° 0 mm 5 mps 758 mmHg 74%
    11:00 +12°C° 0 mm 5 mps 758 mmHg 69%
    12:00 +13°C° 0 mm 5 mps 758 mmHg 64%
    13:00 +14°C° 0 mm 5 mps 758 mmHg 64%
    14:00 +14°C° 0 mm 5 mps 758 mmHg 65%
    15:00 +14°C° 0 mm 5 mps 757 mmHg 65%
    16:00 +13°C° 0 mm 4 mps 757 mmHg 72%
    17:00 +11°C° 0 mm 3 mps 758 mmHg 79%
    18:00 +10°C° 0 mm 2 mps 758 mmHg 86%
    19:00 +9°C° 0.1 mm 2 mps 758 mmHg 89%
    20:00 +9°C° 0.1 mm 2 mps 759 mmHg 92%
    21:00 +9°C° 0.1 mm 3 mps 759 mmHg 94%
    22:00 +9°C° 0.4 mm 2 mps 759 mmHg 95%
    23:00 +8°C° 0.4 mm 2 mps 759 mmHg 95%

    Day after tomorrow, 19 February, Tuesday

    Time Temperature Precipitation Wind Pressure Humidity
    00:00 +9°C° 0.4 mm 1 mps 760 mmHg 96%
    01:00 +9°C° 0 mm 1 mps 760 mmHg 95%
    02:00 +7°C° 0 mm 2 mps 760 mmHg 95%
    03:00 +7°C° 0 mm 2 mps 760 mmHg 94%
    04:00 +6°C° 0 mm 2 mps 760 mmHg 95%
    05:00 +6°C° 0 mm 2 mps 761 mmHg 95%
    06:00 +5°C° 0 mm 2 mps 761 mmHg 96%
    07:00 +7°C° 0 mm 1 mps 761 mmHg 94%
    08:00 +8°C° 0 mm 1 mps 762 mmHg 91%
    09:00 +8°C° 0 mm 1 mps 762 mmHg 89%
    10:00 +10°C° 0 mm 1 mps 762 mmHg 83%
    11:00 +11°C° 0 mm 1 mps 762 mmHg 77%
    12:00 +12°C° 0 mm 2 mps 762 mmHg 70%
    13:00 +12°C° 0 mm 1 mps 762 mmHg 67%
    14:00 +13°C° 0 mm 1 mps 761 mmHg 63%
    15:00 +13°C° 0 mm 1 mps 761 mmHg 60%
    16:00 +12°C° 0 mm 1 mps 761 mmHg 65%
    17:00 +10°C° 0 mm 1 mps 761 mmHg 70%
    18:00 +8°C° 0 mm 0 mps 761 mmHg 75%
    19:00 +8°C° 0 mm 0 mps 761 mmHg 76%
    20:00 +8°C° 0 mm 1 mps 762 mmHg 78%
    21:00 +8°C° 0 mm 1 mps 762 mmHg 80%
    22:00 +7°C° 0 mm 1 mps 762 mmHg 83%
    23:00 +7°C° 0 mm 1 mps 762 mmHg 85%

    20 February, Wednesday

    Time Temperature Precipitation Wind Pressure Humidity
    00:00 +7°C° 0 mm 1 mps 762 mmHg 87%
    01:00 +7°C° 0 mm 1 mps 762 mmHg 89%
    02:00 +7°C° 0 mm 1 mps 762 mmHg 90%
    03:00 +6°C° 0 mm 1 mps 761 mmHg 91%
    04:00 +6°C° 0 mm 1 mps 761 mmHg 92%
    05:00 +5°C° 0 mm 2 mps 762 mmHg 93%
    06:00 +5°C° 0 mm 2 mps 762 mmHg 93%
    07:00 +6°C° 0 mm 2 mps 762 mmHg 91%
    08:00 +7°C° 0 mm 2 mps 762 mmHg 89%
    09:00 +8°C° 0 mm 2 mps 763 mmHg 88%
    10:00 +10°C° 0 mm 2 mps 763 mmHg 81%
    11:00 +12°C° 0 mm 2 mps 763 mmHg 75%
    12:00 +14°C° 0 mm 2 mps 763 mmHg 69%
    13:00 +14°C° 0 mm 2 mps 762 mmHg 68%
    14:00 +14°C° 0 mm 2 mps 762 mmHg 66%
    15:00 +15°C° 0 mm 2 mps 762 mmHg 65%
    16:00 +13°C° 0 mm 2 mps 762 mmHg 71%
    17:00 +12°C° 0 mm 1 mps 762 mmHg 76%
    18:00 +11°C° 0 mm 1 mps 763 mmHg 82%
    19:00 +10°C° 0 mm 1 mps 763 mmHg 83%
    20:00 +10°C° 0 mm 1 mps 763 mmHg 85%
    21:00 +9°C° 0 mm 1 mps 764 mmHg 87%
    22:00 +9°C° 0 mm 1 mps 764 mmHg 88%
    23:00 +9°C° 0 mm 1 mps 764 mmHg 89%

    21 February, Thursday

    Time Temperature Precipitation Wind Pressure Humidity
    00:00 +8°C° 0 mm 1 mps 764 mmHg 90%
    01:00 +8°C° 0 mm 1 mps 764 mmHg 91%
    02:00 +8°C° 0 mm 1 mps 764 mmHg 91%
    03:00 +7°C° 0 mm 1 mps 764 mmHg 92%
    04:00 +7°C° 0 mm 1 mps 764 mmHg 92%
    05:00 +7°C° 0 mm 1 mps 764 mmHg 92%
    06:00 +6°C° 0 mm 2 mps 764 mmHg 93%
    07:00 +7°C° 0 mm 2 mps 764 mmHg 89%
    08:00 +8°C° 0 mm 2 mps 765 mmHg 86%
    09:00 +9°C° 0 mm 2 mps 765 mmHg 83%
    10:00 +10°C° 0 mm 2 mps 765 mmHg 77%
    11:00 +13°C° 0 mm 2 mps 765 mmHg 71%
    12:00 +14°C° 0 mm 2 mps 765 mmHg 64%
    13:00 +15°C° 0 mm 2 mps 765 mmHg 62%
    14:00 +15°C° 0 mm 2 mps 765 mmHg 61%
    15:00 +16°C° 0 mm 2 mps 764 mmHg 59%
    16:00 +15°C° 0 mm 2 mps 765 mmHg 65%
    17:00 +13°C° 0 mm 2 mps 765 mmHg 70%
    18:00 +12°C° 0 mm 2 mps 765 mmHg 76%
    19:00 +10°C° 0 mm 2 mps 765 mmHg 78%
    20:00 +10°C° 0 mm 2 mps 766 mmHg 80%
    21:00 +9°C° 0 mm 2 mps 766 mmHg 82%
    22:00 +9°C° 0 mm 2 mps 766 mmHg 83%
    23:00 +8°C° 0 mm 2 mps 766 mmHg 84%

    22 February, Friday

    Time Temperature Precipitation Wind Pressure Humidity
    00:00 +8°C° 0 mm 2 mps 766 mmHg 85%
    01:00 +8°C° 0 mm 2 mps 766 mmHg 86%
    02:00 +7°C° 0 mm 2 mps 766 mmHg 86%
    03:00 +7°C° 0 mm 2 mps 766 mmHg 86%
    04:00 +7°C° 0 mm 2 mps 766 mmHg 86%
    05:00 +7°C° 0 mm 2 mps 767 mmHg 87%
    06:00 +6°C° 0 mm 2 mps 767 mmHg 87%
    07:00 +8°C° 0 mm 2 mps 767 mmHg 83%
    08:00 +9°C° 0 mm 3 mps 767 mmHg 79%
    09:00 +10°C° 0 mm 3 mps 767 mmHg 76%
    10:00 +12°C° 0 mm 3 mps 767 mmHg 71%
    11:00 +13°C° 0 mm 3 mps 767 mmHg 65%
    12:00 +15°C° 0 mm 4 mps 767 mmHg 60%
    13:00 +17°C° 0 mm 4 mps 766 mmHg 59%
    14:00 +17°C° 0 mm 4 mps 766 mmHg 59%
    15:00 +17°C° 0 mm 4 mps 765 mmHg 58%
    16:00 +15°C° 0 mm 4 mps 765 mmHg 63%
    17:00 +13°C° 0 mm 4 mps 765 mmHg 69%
    18:00 +11°C° 0 mm 4 mps 765 mmHg 75%
    19:00 +11°C° 0 mm 4 mps 765 mmHg 76%
    20:00 +10°C° 0 mm 4 mps 765 mmHg 78%
    21:00 +10°C° 0 mm 4 mps 765 mmHg 79%
    22:00 +8°C° 0 mm 4 mps 765 mmHg 81%
    23:00 +8°C° 0 mm 4 mps 765 mmHg 83%
    Show more